Weather in Jiaxing

China     30°46′01″N   120°44′35″E
temp.,
°C
wind,
m/s
gust,
m/s
humid.,
%
clouds,
%
prec.,
mm/h
press.,
hPa
HPBL,
m
23 january, sat
sat2323:00+9nne2390100 0.4 1018260
02:00+9n2493100 0.9 1017263
05:00+8n4793100 2.1 1017354
08:00+8nne4692100 4.1 1020354
11:00+7n3590100 1.4 1019340
14:00+9n4582100 0.3 1021547
17:00+8nnw4686100 0.0 1020541
20:00+8n468192 0.0 1024593
24 january, sun
sun2423:00+7nw468698 0.0 1024523
02:00+5n239277 0.0 102476
05:00+4ene228433 0.0 102331
08:00+4e237917 0.0 1024131
11:00+10e23510 0.0 1025587
14:00+10se347154 0.0 1023587
17:00+11ese597442 0.0 1023794
20:00+8ese5108932 0.0 1024366
25 january, mon
mon2523:00+7ese489418 0.0 1023193
02:00+7ese389416 0.0 1023194
05:00+8e499354 0.0 1023271
08:00+10ese7138547 0.0 1023519
11:00+13ese676891 0.0 1023823
14:00+15se79635 0.0 1019897
17:00+13ese610710 0.0 1018394
20:00+11e258071 0.0 1022244
26 january, tue
tue2623:00+11ne1282100 0.0 1022105
02:00+11nw4888100 0.1 1020448
05:00+10wnw61189100 0.3 1021609
08:00+9nnw2494100 0.8 1024279
11:00+10n2387100 0.1 1024363
14:00+9nnw4789100 0.4 1023470
17:00+9nne377798 0.0 1024737
20:00+10ne4877100 0.0 1025622
27 january, wed
wed2723:00+7nne368493 0.0 1025387
02:00+7ne349042 0.0 1025110
05:00+5ne259063 0.0 1024172
08:00+6e248554 0.0 1024207
11:00+11ene566410 0.0 1025930
14:00+10se336077 0.0 1022606
17:00+8se3473100 0.0 1022385
20:00+8ene466896 0.1 1024875